Location: Cheching
(60.0667°N, 164.2167°W)
Time: 10:46:26
(UTC+00:00)

NOAA 19 - Pass Details

Date: 21 January 2021
Orbit: 840 x 862 km, 99.2° (Epoch: 26 February)

Event Time Altitude Azimuth Distance (km) Brightness Sun altitude
Rises 05:09:49 0° 183° (S) 3,431 8.5 -17.3°
Reaches altitude 10° 05:12:18 10° 190° (S) 2,496 7.9 -17.6°
Maximum altitude 05:17:34 43° 261° (W) 1,186 6.5 -18.3°
Drops below altitude 10° 05:22:52 10° 333° (NNW) 2,501 7.9 -18.9°
Sets 05:25:23 0° 340° (NNW) 3,438 8.5 -19.2°
